[[{"header":{"parameterUnit":"m.s-1","parameterCategory":1,"la1":30.2991,"la2":30.254,"lo1":-89.0895,"lo2":-89.0444,"dy":0.0017,"dx":0.0017,"nx":28,"ny":28,"refTime":"2024-08-26T21:00:00:Z","depth":0,"parameterNumber":2,"parameterNumberName":"U-component_of_WINDS"},"data":[0,0,0,0,0,0,0,0,0,0,0,0,0,0,0,0,0,0,0,0,0,0,0,0,0,0,0,0,0,0,0,0,0,0,0,0,0,0,0,0,0,0,0,0,0,0,0,0,0,0,0,0,0,0,0,0,0,0,-1.8444,-1.8444,0,-1.8494,-1.8495,-1.8495,-1.8495,-1.8494,-1.8494,-1.8493,-1.8542,-1.8544,-1.8546,0,0,0,0,0,0,0,0,0,0,0,0,0,-1.8345,-1.8347,-1.8444,-1.8444,-1.8445,-1.8494,-1.8495,-1.8495,-1.8495,-1.8494,-1.8494,-1.8493,-1.8542,-1.8544,-1.8546,0,0,0,0,0,0,0,0,0,0,0,0,0,-1.8391,-1.8348,-1.8444,-1.8451,-1.8452,-1.8494,-1.8495,-1.8496,-1.8495,-1.8494,-1.8493,-1.8493,-1.8541,-1.8544,-1.8546,-1.8584,0,0,-1.8555,-1.8556,0,0,0,0,0,0,0,0,-1.8389,-1.8395,-1.8449,-1.845,-1.8452,-1.8487,-1.8478,-1.8525,-1.8496,-1.8479,-1.8493,-1.8492,-1.8525,-1.8529,-1.854,-1.8586,-1.8588,-1.8555,-1.8557,-1.8558,-1.8559,0,0,0,0,0,0,0,-1.8385,-1.8393,-1.8464,-1.845,-1.8452,-1.8451,-1.8456,-1.8487,-1.8506,-1.848,-1.848,-1.8486,-1.8525,-1.8537,-1.8541,-1.8589,-1.8555,-1.8558,-1.856,-1.8561,-1.8667,-1.8668,0,0,0,0,0,0,-1.8381,-1.839,-1.8462,-1.8465,-1.8417,-1.8454,-1.846,-1.8477,-1.8506,-1.851,-1.8487,-1.8486,-1.8533,-1.8538,-1.8543,-1.8588,-1.8558,-1.8561,-1.8563,-1.8666,-1.8667,-1.8668,0,0,0,0,0,0,-1.8379,-1.8387,-1.846,-1.8428,-1.8437,-1.8456,-1.8476,-1.8478,-1.8491,-1.8512,-1.8515,-1.8496,-1.8532,-1.8539,-1.8574,-1.859,-1.8562,-1.8565,-1.8665,-1.8666,-1.8668,-1.8678,0,0,0,0,0,0,-1.8376,-1.8387,-1.8401,-1.8428,-1.8439,-1.849,-1.8477,-1.848,-1.8496,-1.8495,-1.8521,-1.8524,-1.8532,-1.8569,-1.8576,-1.8593,-1.8567,-1.8663,-1.8665,-1.8667,-1.8676,-1.868,-1.8683,0,0,0,0,0,-1.8373,-1.8402,-1.8402,-1.8411,-1.8457,-1.8491,-1.8497,-1.8506,-1.8497,-1.8512,-1.8525,-1.8523,-1.8587,-1.8573,-1.8581,-1.8599,-1.8662,-1.8665,-1.8667,-1.8675,-1.8679,-1.8683,0,0,0,0,0,0,-1.8375,-1.8405,-1.8406,-1.8445,-1.8466,-1.8491,-1.851,-1.8511,-1.8534,-1.8532,-1.8542,-1.8548,-1.8582,-1.8594,-1.8578,-1.8636,-1.8623,-1.8628,-1.8627,-1.8631,-1.8634,-1.863,-1.857,0,0,0,0,0,-1.8381,-1.8407,-1.8431,-1.8463,-1.8473,-1.849,-1.8505,-1.851,-1.8532,-1.854,-1.8556,-1.8576,-1.8601,-1.8617,-1.8641,-1.8679,-1.8684,-1.8695,-1.8698,-1.8701,-1.8704,-1.8724,-1.8729,-1.8677,-1.8677,-1.8677,0,0,-1.8392,-1.8411,-1.8427,-1.8464,-1.8481,-1.8506,-1.8497,-1.8524,-1.8543,-1.8544,-1.8578,-1.859,-1.8614,-1.865,-1.8667,-1.8661,-1.872,-1.8704,-1.8706,-1.8708,-1.8727,-1.8732,-1.8737,-1.8678,-1.8678,-1.8678,0,0,-1.8424,-1.8442,-1.8471,-1.8488,-1.8514,-1.8525,-1.8531,-1.8557,-1.8566,-1.86,-1.8601,-1.8623,-1.8666,-1.8682,-1.8696,-1.8736,-1.8735,-1.8744,-1.876,-1.878,-1.8784,-1.8788,-1.8801,-1.8806,-1.8747,-1.8747,-1.8747,0,-1.8434,-1.8474,-1.8485,-1.8513,-1.8529,-1.8532,-1.856,-1.8576,-1.8608,-1.8619,-1.8612,-1.8666,-1.8682,-1.8722,-1.8731,-1.8743,-1.875,-1.874,-1.8783,-1.8787,-1.879,-1.8803,-1.8808,-1.8748,-1.8748,-1.8748,-1.8748,0,-1.8484,-1.8511,-1.8531,-1.8563,-1.8581,-1.8609,-1.8624,-1.8641,-1.8645,-1.8657,-1.8691,-1.8711,-1.8739,-1.8749,-1.8753,-1.879,-1.8785,-1.8781,-1.8768,-1.8796,-1.8808,-1.8813,-1.8749,-1.8749,-1.8748,-1.8748,0,0,-1.8518,-1.8557,-1.8564,-1.8578,-1.8607,-1.8628,-1.8656,-1.8684,-1.8698,-1.8721,-1.8744,-1.878,-1.8776,-1.8792,-1.8798,-1.8816,-1.8845,-1.8809,-1.881,-1.8814,-1.8886,-1.8888,-1.8894,-1.8846,-1.8847,-1.8848,-1.8884,0,-1.8553,-1.8604,-1.8615,-1.8658,-1.8683,-1.8687,-1.8711,-1.8731,-1.8743,-1.8766,-1.8778,-1.8804,-1.8797,-1.8807,-1.8825,-1.8838,-1.886,-1.8836,-1.8866,-1.8867,-1.8859,-1.89,-1.8903,-1.8936,-1.8889,-1.8889,-1.889,0,-1.86,-1.8625,-1.867,-1.8696,-1.8707,-1.8729,-1.8755,-1.8777,-1.88,-1.8807,-1.8826,-1.883,-1.8859,-1.8846,-1.8885,-1.8869,-1.8882,-1.8891,-1.8892,-1.8894,-1.8879,-1.8902,-1.8947,-1.8951,-1.8898,-1.8897,-1.8897,0,-1.862,-1.8664,-1.8697,-1.8709,-1.874,-1.8755,-1.8769,-1.8791,-1.8808,-1.8831,-1.8841,-1.8867,-1.8881,-1.8901,-1.8912,-1.8902,-1.895,-1.8939,-1.8956,-1.8956,-1.8965,-1.8964,-1.9011,-1.8976,-1.8976,-1.8976,-1.8975,0,-1.8657,-1.8684,-1.8706,-1.8726,-1.8757,-1.8769,-1.8799,-1.8813,-1.8833,-1.8855,-1.886,-1.8881,-1.8895,-1.8918,-1.8927,-1.8958,-1.8964,-1.897,-1.8972,-1.8969,-1.8968,-1.8977,-1.8974,-1.8977,-1.8977,-1.8976,-1.8976,0,-1.8682,-1.8698,-1.8734,-1.8762,-1.8769,-1.8791,-1.8814,-1.8833,-1.8845,-1.8874,-1.8881,-1.89,-1.8927,-1.8941,-1.8974,-1.898,-1.9014,-1.9015,-1.9007,-1.9007,-1.9023,-1.9021,-1.9076,-1.9084,-1.9045,-1.9045,-1.9046,0,-1.8704,-1.8726,-1.8756,-1.8771,-1.8786,-1.8811,-1.8828,-1.8841,-1.8858,-1.8887,-1.8902,-1.893,-1.8952,-1.8995,-1.9011,-1.9037,-1.9038,-1.9056,-1.9042,-1.9038,-1.9037,-1.9035,-1.9037,-1.9057,-1.9058,-1.9058,-1.9058,0,-1.8741,-1.8748,-1.8772,-1.88,-1.882,-1.8842,-1.8863,-1.8876,-1.8893,-1.8912,-1.894,-1.8957,-1.8992,-1.9019,-1.9046,-1.9059,-1.9061,-1.9063,-1.9068,-1.9064,-1.9058,-1.9061,-1.9012,-1.9061,-1.9061,-1.9061,-1.9061,-1.906,-1.8765,-1.8784,-1.8808,-1.8835,-1.8853,-1.8873,-1.8893,-1.8908,-1.8932,-1.8961,-1.8968,-1.8998,-1.902,-1.9057,-1.9071,-1.9094,-1.909,-1.9098,-1.9099,-1.9101,-1.9101,-1.9056,-1.9099,-1.9099,-1.9099,-1.9099,-1.9099,0,-1.8801,-1.8817,-1.8842,-1.8872,-1.8893,-1.8895,-1.8919,-1.8936,-1.8963,-1.8984,-1.9006,-1.9038,-1.9065,-1.9084,-1.911,-1.9125,-1.9126,-1.9131,-1.9129,-1.9132,-1.9103,-1.9096,-1.9129,-1.9129,-1.9129,-1.9129,-1.9129,-1.9129,-1.8822,-1.8854,-1.8864,-1.8905,-1.8921,-1.895,-1.8964,-1.8982,-1.8999,-1.9035,-1.9057,-1.907,-1.909,-1.9119,-1.9143,-1.9147,-1.9156,-1.9161,-1.9166,-1.9138,-1.9134,-1.9131,-1.9124,-1.9163,-1.9163,-1.9193,-1.9193,-1.9193]},{"header":{"parameterUnit":"m.s-1","parameterCategory":1,"la1":30.2991,"la2":30.254,"lo1":-89.0895,"lo2":-89.0444,"dy":0.0017,"dx":0.0017,"nx":28,"ny":28,"refTime":"2024-08-26T21:00:00:Z","depth":0,"parameterNumber":3,"parameterNumberName":"V-component_of_WINDS"},"data":[0,0,0,0,0,0,0,0,0,0,0,0,0,0,0,0,0,0,0,0,0,0,0,0,0,0,0,0,0,0,0,0,0,0,0,0,0,0,0,0,0,0,0,0,0,0,0,0,0,0,0,0,0,0,0,0,0,0,0.255,0.255,0,0.2533,0.2533,0.2533,0.251,0.251,0.2509,0.2509,0.2491,0.2491,0.249,0,0,0,0,0,0,0,0,0,0,0,0,0,0.2563,0.2563,0.255,0.255,0.255,0.2533,0.2533,0.2532,0.251,0.251,0.2509,0.2509,0.2491,0.2491,0.249,0,0,0,0,0,0,0,0,0,0,0,0,0,0.2553,0.2563,0.255,0.2536,0.2535,0.2533,0.2533,0.2532,0.251,0.251,0.2509,0.2509,0.2491,0.2491,0.249,0.25,0,0,0.249,0.249,0,0,0,0,0,0,0,0,0.2553,0.2552,0.2539,0.2537,0.2536,0.2523,0.253,0.2522,0.251,0.252,0.2509,0.2508,0.2502,0.2501,0.2499,0.2499,0.2498,0.249,0.249,0.2489,0.2489,0,0,0,0,0,0,0,0.2554,0.2553,0.2543,0.2538,0.2537,0.2531,0.2529,0.2529,0.2514,0.2519,0.2517,0.2515,0.2501,0.2499,0.2498,0.2498,0.249,0.249,0.2489,0.2489,0.2505,0.2506,0,0,0,0,0,0,0.2557,0.2553,0.2544,0.2543,0.2543,0.2531,0.2529,0.2528,0.2514,0.2511,0.2516,0.2514,0.25,0.2498,0.2497,0.2507,0.2489,0.2489,0.2489,0.2505,0.2505,0.2506,0,0,0,0,0,0,0.2557,0.2556,0.2544,0.2548,0.2546,0.2532,0.253,0.2528,0.2526,0.2512,0.2509,0.2517,0.2499,0.2498,0.25,0.2507,0.2489,0.2489,0.2504,0.2505,0.2506,0.2528,0,0,0,0,0,0,0.2558,0.2556,0.256,0.2548,0.2546,0.2547,0.2531,0.2528,0.2525,0.2523,0.2512,0.2509,0.2499,0.25,0.2499,0.2506,0.2489,0.2503,0.2505,0.2506,0.2527,0.2529,0.2532,0,0,0,0,0,0.2558,0.2567,0.256,0.2559,0.255,0.2548,0.2546,0.2534,0.2526,0.2529,0.2521,0.251,0.2506,0.25,0.2499,0.2506,0.2503,0.2504,0.2505,0.2525,0.2529,0.2532,0,0,0,0,0,0,0.258,0.2565,0.2558,0.2563,0.2557,0.2544,0.2548,0.2538,0.2534,0.2532,0.2517,0.2515,0.2518,0.2512,0.2506,0.2515,0.2503,0.2504,0.2518,0.2521,0.2524,0.2525,0.2489,0,0,0,0,0,0.2585,0.2585,0.2572,0.2577,0.2575,0.2562,0.256,0.2552,0.2545,0.2542,0.2533,0.2527,0.2524,0.2522,0.2519,0.2526,0.2523,0.253,0.2533,0.2535,0.2536,0.2538,0.2541,0.251,0.251,0.251,0,0,0.2596,0.2588,0.2589,0.2582,0.2576,0.2576,0.256,0.256,0.256,0.2542,0.2543,0.2537,0.2528,0.2532,0.2534,0.2527,0.2544,0.2536,0.2538,0.2538,0.254,0.2543,0.2546,0.2511,0.2511,0.2511,0,0,0.2616,0.261,0.2614,0.2609,0.26,0.2592,0.2593,0.2582,0.2577,0.2578,0.2564,0.2563,0.2559,0.2554,0.255,0.2569,0.2558,0.2568,0.2582,0.2585,0.2587,0.2589,0.2595,0.2598,0.2569,0.2569,0.2569,0,0.2631,0.263,0.2617,0.2618,0.2616,0.26,0.2604,0.2599,0.259,0.2588,0.2582,0.2576,0.2569,0.2572,0.2576,0.2574,0.2575,0.2569,0.2588,0.259,0.2592,0.2597,0.26,0.257,0.257,0.257,0.257,0,0.2648,0.2648,0.2652,0.2644,0.2642,0.2644,0.2632,0.2631,0.2623,0.2615,0.2616,0.2607,0.2602,0.2602,0.2594,0.2603,0.26,0.2591,0.2579,0.2596,0.2601,0.2603,0.2572,0.2572,0.2571,0.2571,0,0,0.2681,0.2666,0.2668,0.2664,0.2654,0.2653,0.2655,0.265,0.2649,0.2644,0.2645,0.2642,0.2633,0.2629,0.262,0.2623,0.2637,0.2613,0.2613,0.2618,0.2647,0.2654,0.2656,0.2631,0.2631,0.2631,0.2648,0,0.2698,0.2701,0.2689,0.2695,0.2694,0.2679,0.2681,0.2674,0.2667,0.2665,0.2657,0.2655,0.2645,0.2642,0.2644,0.2635,0.2643,0.2634,0.2631,0.2631,0.2633,0.2659,0.2666,0.2682,0.265,0.265,0.265,0,0.2719,0.2715,0.272,0.271,0.2709,0.271,0.2705,0.2704,0.2696,0.2691,0.2687,0.2677,0.2677,0.2666,0.2667,0.2661,0.2659,0.2654,0.2655,0.2653,0.2641,0.2658,0.2687,0.2689,0.2653,0.2653,0.2653,0,0.2742,0.2737,0.274,0.2737,0.2725,0.2726,0.2721,0.2714,0.2711,0.2707,0.2705,0.27,0.2698,0.2694,0.2683,0.2676,0.2685,0.2673,0.268,0.268,0.2682,0.2682,0.271,0.2681,0.2681,0.2681,0.2681,0,0.2762,0.2766,0.275,0.2751,0.2755,0.2742,0.2746,0.2739,0.2733,0.2732,0.2719,0.2719,0.2705,0.2703,0.2694,0.2695,0.2694,0.269,0.2687,0.2691,0.2691,0.2689,0.2687,0.2682,0.2682,0.2682,0.2682,0,0.2788,0.2777,0.2779,0.2768,0.2765,0.2768,0.2758,0.2759,0.2751,0.2751,0.275,0.2738,0.2735,0.2723,0.2718,0.2712,0.2716,0.2712,0.2719,0.2717,0.2725,0.2724,0.2752,0.2754,0.2725,0.2725,0.2726,0,0.2801,0.2804,0.2793,0.2792,0.2788,0.2786,0.2784,0.2772,0.277,0.2762,0.2763,0.276,0.2756,0.2752,0.2742,0.2738,0.2733,0.2743,0.2732,0.2736,0.2733,0.2732,0.2732,0.2745,0.2746,0.2746,0.2746,0,0.2826,0.2821,0.2819,0.2814,0.2812,0.2808,0.2803,0.2803,0.2789,0.2788,0.2785,0.2782,0.2777,0.2773,0.2767,0.2762,0.2751,0.275,0.2751,0.2754,0.2758,0.2756,0.2725,0.2749,0.2749,0.2749,0.2748,0.2748,0.2846,0.2847,0.284,0.2838,0.2833,0.2828,0.2829,0.2821,0.2819,0.2813,0.2806,0.2804,0.2797,0.2788,0.2783,0.2781,0.2775,0.2777,0.2778,0.2778,0.278,0.2759,0.278,0.278,0.278,0.278,0.278,0,0.287,0.2864,0.2862,0.2856,0.2854,0.2846,0.284,0.2839,0.2837,0.2831,0.2828,0.2825,0.2821,0.2811,0.2807,0.2807,0.2802,0.2806,0.2806,0.2805,0.2785,0.2785,0.281,0.281,0.281,0.281,0.281,0.281,0.2882,0.2884,0.2878,0.2877,0.2872,0.287,0.2868,0.2864,0.2859,0.2856,0.2853,0.2847,0.2839,0.2834,0.283,0.2827,0.2826,0.2831,0.2827,0.2809,0.2806,0.2803,0.2802,0.2831,0.2831,0.2846,0.2846,0.2846]}]]